World > North America > United States > Massachusetts

Hourly East Millbury, MA Regional Weather

Feedback E-mail the Weather

Quick WX

East Millbury, MA Weather Maps

°F °C°F °C
East Millbury Weather Map
UTC Time: 6/29/2022, 03:21
Your Time:

East Millbury, MA Regional Weather

Expires:202206290400;;363522
ASUS41 KGYX 290310
RWRGYX
WEATHER ROUNDUP FOR MAINE AND NEW HAMPSHIRE
NATIONAL WEATHER SERVICE GRAY ME
1100 PM EDT TUE JUN 28 2022


MAZ007-012-024-CTZ003-RIZ002-NYZ038-NYZ072-290400-
SOUTHERN NEW ENGLAND AND NY
  
CITY           SKY/WX    TMP DP  RH WIND       PRES   REMARKS
BOSTON         CLEAR     67  59  75 SE3       30.16S                  
WORCESTER      CLEAR     64  53  67 W6        30.19S                  
NANTUCKET      CLEAR     61  59  93 S5        30.19R                  
PROVIDENCE     PTCLDY    67  59  75 W5        30.17R                  
HARTFORD       CLEAR     65  55  70 W3        30.17R                  
ALBANY         PTCLDY    66  53  63 W6        30.20R                  
NEW YORK CITY  MOCLDY    72  52  49 S7        30.18S                  
$$


SKY/WX - Weather  TMP - Temperature  DP - Dew Point  RH - Humidity
WIND - Wind Direction/Speed PRES - Barometric Pressure VSB - Visibility
WCI - Wind Chill Index E13G22 Wind - East Wind 13 mph/Gusts of 22 mph

Trending Headlines

East Millbury Radar Loop



East Millbury Quick Facts


National Two Day Weather Forecast


E-mail the East Millbury Weather Forecast

Voice your opinion or tell us about page issues...